Regional Weather Roundup
Issued by NWS

Home | Current Version | Previous Version | Text Only | Print | Product List | Glossary Off
Versions: 1 2 3 4 5 6 7 8 9 10 11 12 13 14 15 16 17 18 19 20 21 22 23 24 25 26 27 28 29 30 31 32 33 34 35 36 37 38 39 40 41 42 43 44 45 46 47 48 49 50

000
ASUS43 KLOT 030510
RWRIL

ILLINOIS REGIONAL WEATHER ROUNDUP
NATIONAL WEATHER SERVICE CHICAGO/ROMEOVILLE IL
1100 PM CST MON MAR 02 2015

NOTE: "FAIR" INDICATES FEW OR NO CLOUDS BELOW 12,000 FEET WITH NO
SIGNIFICANT WEATHER AND/OR OBSTRUCTIONS TO VISIBILITY.

* THESE STATIONS ARE NOT UNDER NWS QUALITY CONTROL. THEY ALSO MAY NOT
  REPORT WEATHER SUCH AS PRECIPITATION OR FOG.

ILZ001-002-007-009-015-016-024-030600-
NORTHWEST ILLINOIS

CITY           SKY/WX    TMP DP  RH WIND       PRES   REMARKS
MOLINE         FAIR      27  18  69 SE9       30.21F WCI  18
STERLING*      CLOUDY    25  19  80 SE7       30.22F WCI  17
SAVANNA*       CLOUDY    26  19  76 SE8       30.20F WCI  18
$$

ILZ003-004-008-010-011-017-018-030600-
NORTH CENTRAL ILLINOIS

CITY           SKY/WX    TMP DP  RH WIND       PRES   REMARKS
ROCKFORD       CLOUDY    24  16  71 SE8       30.24F WCI  15
FREEPORT*      CLOUDY    24  17  76 SE7       30.23F WCI  16
ROCHELLE*      CLOUDY    23  19  82 SE7       30.24F WCI  15
DE KALB*       CLOUDY    22  16  77 SE7       30.23F WCI  14
PERU*          CLOUDY    26  20  77 SE6       30.25F WCI  19
$$

ILZ005-006-012>014-019>023-030600-
NORTHEAST ILLINOIS

CITY           SKY/WX    TMP DP  RH WIND       PRES   REMARKS
CHICAGO-OHARE  CLOUDY    25  15  66 S6        30.26F WCI  18
CHICAGO-MIDWAY CLOUDY    28  14  55 S7        30.27F WCI  21
AURORA         CLOUDY    25  16  68 SE7       30.26F WCI  17
LANSING*       CLOUDY    26  17  67 SE5       30.29F WCI  20
JOLIET*        CLOUDY    25  17  72 SE5       30.27F WCI  19
WAUKEGAN       CLOUDY    26  16  65 S8        30.25F WCI  18
DUPAGE AIRPORT CLOUDY    25  16  68 SE8       30.25F WCI  16
KANKAKEE*      CLOUDY    25  19  78 E7        30.28F WCI  17
WHEELING       CLOUDY    27  13  55 S8        30.28F WCI  19
MORRIS*        CLOUDY    25  20  83 E6        30.25F WCI  18
ROMEOVILLE*    CLOUDY    25  17  70 S7        30.27F WCI  17
NORTHERLY ISL    N/A     27  14  58 S6          N/A  WCI  21
$$

LMZ740>746-030600-
SOUTHERN LAKE MICHIGAN

STATION/POSITION SKY/WX   TEMP    WIND        PRES    VSBY  WAVE
                          AIR SEA DIR/SP/G                  HT/PER
                          (F)     (DEG/KT/KT) (MB)    (MI)  (FT/S)
WAUKEGAN HARBOR            27     210/ 16/ 34   N/A
HARRISON CRIB              27     170/ 13/ 16   N/A
BURNHAM HARBOR             27     180/  5/  8   N/A
CALUMET HARBOR             26                   N/A
MICHIGAN CITY              26     130/  6/  8   N/A
$$

ILZ025>027-034>036-040-047-049-050-058-095>099-030600-
WEST-CENTRAL ILLINOIS

CITY           SKY/WX    TMP DP  RH WIND       PRES   REMARKS
QUINCY         MIX PCPN  29  19  66 SE12      30.17F WCI  19
GALESBURG*     FAIR      26  19  75 SE6       30.21R WCI  20
MACOMB*        FAIR      27  22  83 SE9       30.22F WCI  17
JACKSONVILLE*  CLOUDY    30  21  69 SE8       30.22F WCI  22
PITTSFIELD*    CLOUDY    30  20  65 SE10      30.21F WCI  21
$$

ILZ028>032-037-038-041>044-048-051>054-059>061-030600-
CENTRAL ILLINOIS

CITY           SKY/WX    TMP DP  RH WIND       PRES   REMARKS
PONTIAC        MOCLDY    24  21  86 SE8       30.26F WCI  16
BLOOMINGTON    FAIR      24  18  78 SE12      30.22F WCI  13
DECATUR        FAIR      25  18  74 SE9       30.23F WCI  15
PEORIA         FAIR      28  16  60 SE9       30.23F WCI  19
LACON*         FAIR      24  18  75 SE6       30.22F WCI  17
LINCOLN*       MOCLDY    26  19  77 SE6       30.27F WCI  19
SPRINGFIELD    MOCLDY    28  19  69 SE7       30.26R WCI  21
TAYLORVILLE    CLOUDY    28  19  69 SE8       30.24F WCI  20
$$

ILZ033-039-045-046-055>057-062-063-030600-
EAST-CENTRAL ILLINOIS

CITY           SKY/WX    TMP DP  RH WIND       PRES   REMARKS
CHAMPAIGN      FAIR      24  18  77 E9        30.24F WCI  14
DANVILLE*      FAIR      24  16  72 E7        30.23F WCI  16
RANTOUL*       MOCLDY    25  19  77 E5        30.25F WCI  19
MATTOON        FAIR      25  17  72 SE7       30.23F WCI  17
PARIS*         FAIR      27  19  73 SE5       30.28S WCI  21
$$

ILZ079-100>102-030600-
SOUTHWEST ILLINOIS

CITY           SKY/WX    TMP DP  RH WIND       PRES   REMARKS
ALTON          CLOUDY    30  17  58 SE10      30.23F WCI  21
BELLEVILLE     CLOUDY    30  22  70 SE7       30.24F WCI  23
CAHOKIA*       CLOUDY    31  21  66 SE10      30.23F WCI  22
SPARTA*        CLOUDY    31  23  72 SE5       30.26F WCI  26
$$

ILZ064>066-069>071-074>076-080>082-084>086-088>090-092>094-030600-
SOUTH-CENTRAL ILLINOIS

CITY           SKY/WX    TMP DP  RH WIND       PRES   REMARKS
CARBONDALE     CLOUDY    33  23  66 CALM      30.27R
CAIRO*         CLOUDY    37  26  64 NE3       30.26F
EFFINGHAM*     CLOUDY    27  16  63 E6        30.27F WCI  21
MARION         CLOUDY    34  25  69 CALM      30.28R
MT. VERNON     CLOUDY    30  19  64 CALM      30.28R
CENTRALIA*     CLOUDY    30  19  63 SE5       30.26F WCI  25
SALEM*         CLOUDY    31  20  64 SE3       30.26F
METROPOLIS*    CLOUDY    36  26  66 CALM      30.24F
$$

ILZ067-068-072-073-078-083-087-091-030600-
SOUTHEAST ILLINOIS

CITY           SKY/WX    TMP DP  RH WIND       PRES   REMARKS
LAWRENCEVILLE  FAIR      25  17  72 E6        30.28F WCI  18
FLORA*           N/A    N/A N/A N/A CALM      30.28S
FAIRFIELD*     CLOUDY    31  20  64 N3        30.27R
HARRISBURG*    CLOUDY    32  25  76 SE3       30.27S
ROBINSON*      FAIR      25  19  77 CALM      30.29F
CARMI*         CLOUDY    33  28  81 E3        30.25F
$$

ABBREVIATIONS USED IN REMARKS
   TC - TEMPERATURE IN CELSIUS
  WCI - WIND CHILL INDEX
   HX - HEAT INDEX
  VSB - VISIBILITY
$$



USA.gov is the U.S. government's official web portal to all federal, state and local government web resources and services.